Flag for Norway Weather past 2 weeks in Kleppe, Norway

Now
56 °F

Passing clouds.


Feels Like: 55 °F
Forecast: 56 / 66 °F
Wind: 5 mph from Southeast

Location: Stavanger / Sola

Current Time: Aug 5, 2015 at 7:19:52 AM

Latest Report: Aug 5, 2015 at 5:00 AM


Visibility: 12 mi

Pressure: 29.86 "Hg

Humidity: 90%

Dew point: 53 °F

Location of KleppeLocation

Historic Weather in Kleppe — Graph

°F

Kleppe temperature yesterday

Maximum temperature yesterday: 69 °F (at 11:00 AM)
Minimum temperature yesterday: 59 °F (at 10:00 PM)
Average temperature yesterday: 65 °F

Past Weeks' High & Low Weather Summary

 TemperatureHumidityPressure
High72 °F (Aug 3, 6:00 PM)96% (Aug 4, 6:00 PM)30.14 "Hg (Aug 4, 6:00 PM)
Low47 °F (Jul 27, 6:00 AM)40% (Aug 3, 6:00 PM)29.38 "Hg (Jul 29, 10:00 AM)
Average58 °F79%29.76 "Hg
* Reported Jul 21 4:00 AM — Aug 5 4:00 AM, Kleppe, Weather by CustomWeather, © 2015

Note: Actual official high and low records may vary slightly from our data, if they occured in-between our weather recording intervals... More about our weather records

Advertising

Kleppe weather history for previous 24 hours

 ConditionsComfort  
Time TempWeatherWind HumidityBarometerVisibility
4:00 AM
Wed, Aug 5
56 °FOvercast.5 mph89%29.86 "Hg14 mi
3:00 AM56 °FOvercast.5 mph91%29.86 "Hg13 mi
2:00 AM54 °FClear.3 mph94%29.86 "Hg11 mi
1:00 AM53 °FClear.3 mph94%29.85 "Hg9 mi
12:00 AM55 °FClear.2 mph91%29.84 "Hg10 mi
10:00 PM
Tue, Aug 4
59 °FPassing clouds.3 mph90%29.83 "Hg7 mi
9:00 PM61 °FPartly sunny.6 mph90%29.82 "Hg7 mi
8:00 PM61 °FLow clouds.7 mph95%29.81 "Hg10 mi
7:00 PM62 °FRain showers. Low clouds.9 mph95%29.80 "Hg2 mi
6:00 PM62 °FRain. Fog.8 mph96%29.80 "Hg3 mi
5:00 PM63 °FRain showers. Overcast.5 mph95%29.80 "Hg4 mi
4:00 PM64 °FLight rain. Partly sunny.3 mph89%29.80 "Hg9 mi
3:00 PM64 °FRain showers. Scattered clouds.6 mph88%29.79 "Hg19 mi
2:00 PM66 °FLight rain. Scattered clouds.7 mph80%29.79 "Hg22 mi
1:00 PM67 °FPassing clouds.8 mph72%29.80 "Hg22 mi
12:00 PM67 °FRain showers. Scattered clouds.9 mph71%29.81 "Hg14 mi
11:00 AM69 °FPassing clouds.10 mph63%29.80 "Hg19 mi
10:00 AM68 °FPassing clouds.8 mph63%29.80 "Hg22 mi
9:00 AM69 °FPassing clouds.9 mph61%29.79 "Hg22 mi
8:00 AM68 °FPassing clouds.7 mph62%29.78 "Hg19 mi
7:00 AM66 °FSunny.9 mph64%29.78 "Hg25 mi
Weather by CustomWeather, © 2015

See weather overviewHow to use our weather pages